weather.gov     
National Weather Service

Terminal Aerodrome Forecast
NWS Homepage
This page is being discontinued on March 12, 2014.
The same data is available at this site. Please update your bookmarks.
Thank you, and we apologize for the inconvenience.
Please send an email to SR-SRH.Webmaster@noaa.gov with any concerns.


Current Version
Previous Version:    01  02  03  04  05  06  07  08  09  10  11  12  13  14  15  16  17  18  19  20  21  22  23  24  25  26  27  28  29  30  
   31  32  33  34  35  36  37  38  39  40  41  
[Printable]
769
FTUS43 KDDC 261139
TAFGCK
TAF
KGCK 261139Z 2612/2712 35015G20KT P6SM OVC100
     FM261500 33015G24KT P6SM SCT080 BKN200
     FM262300 VRB06KT P6SM SKC=




769
FTUS43 KDDC 261139
TAFGCK
TAF
KGCK 261139Z 2612/2712 35015G20KT P6SM OVC100
     FM261500 33015G24KT P6SM SCT080 BKN200
     FM262300 VRB06KT P6SM SKC=


U.S. Dept. of Commerce
NOAA National Weather Service
1325 East West Highway
Silver Spring, MD 20910
E-mail: w-nws.webmaster@noaa.gov
Page last modified: May 16, 2007
NATIONAL WEATHER SERVICE: for Safety, for Work, for Fun - FOR LIFE